Le nostre stazioni meteo in Italia

Pubblicità
Il mio iltempo24.it
Passo Rolle, Italia (16021): Temperatura & dewpoint: 16.11.2019 09:00:00 - 22.11.2019 09:00:00 (CET)Passo Rolle, Italia (16021): velocità del vento: 16.11.2019 09:00:00 - 22.11.2019 09:00:00 (CET)Passo Rolle, Italia (16021): direzione del vento: 16.11.2019 09:00:00 - 22.11.2019 09:00:00 (CET)Passo Rolle, Italia (16021): visibility: 16.11.2019 09:00:00 - 22.11.2019 09:00:00 (CET)
Data & Tempo tt [°C] td [°C] ff [km/h] ff [kn] dd vv [km]
22.11.2019 09:00:00 -2,0 -4,0 11 6 ESE 0,7
22.11.2019 08:00:00 -2,0 -4,0 15 8 ESE 0,7
22.11.2019 07:00:00 -2,0 -3,9 18 10 SE 0,8
22.11.2019 06:00:00 -2,0 -4,0 16 9 SE 0,1
22.11.2019 05:00:00 -2,0 -4,0 13 7 SE 0,1
22.11.2019 04:00:00 -2,0 -3,9 13 7 ESE 0,1
22.11.2019 03:00:00 - - - - - -
22.11.2019 02:00:00 - - - - - -
22.11.2019 01:00:00 -2,0 -3,9 26 14 ESE 0,1
22.11.2019 00:00:00 - - - - - -
21.11.2019 23:00:00 - - - - - -
21.11.2019 22:00:00 -2,2 -4,1 13 7 ESE 0,1
21.11.2019 21:00:00 - - - - - -
21.11.2019 20:00:00 - - - - - -
21.11.2019 19:00:00 -1,2 -2,8 13 7 S 0,1
21.11.2019 18:00:00 -1,0 -3,0 11 6 SSE 0,1
21.11.2019 17:00:00 -1,0 -3,0 13 7 S 0,1
21.11.2019 16:00:00 -1,0 -2,4 16 9 S 0,1
21.11.2019 15:00:00 0,0 -2,0 18 10 SE 0,1
21.11.2019 14:00:00 0,0 -2,0 16 9 SE 0,1
21.11.2019 13:00:00 0,0 -2,1 13 7 ESE 0,1
21.11.2019 12:00:00 0,0 -2,0 21 11 SE 0,1
21.11.2019 11:00:00 0,0 -2,0 18 10 SE 0,1
21.11.2019 10:00:00 -0,8 -2,7 15 8 SE 0,1
21.11.2019 09:00:00 -1,0 -3,0 16 9 SSE 10
21.11.2019 08:00:00 -2,0 -4,0 22 12 S 10
21.11.2019 07:00:00 -2,0 -4,2 15 8 S 10
21.11.2019 06:00:00 -2,0 -4,0 8 4 ESE 0,7
21.11.2019 05:00:00 -2,0 -4,0 16 9 ESE 0,4
21.11.2019 04:00:00 -1,8 -3,4 9 5 ESE 0,1
21.11.2019 03:00:00 - - - - - -
21.11.2019 02:00:00 - - - - - -
21.11.2019 01:00:00 -1,2 -2,8 5 3 ESE 0,1
21.11.2019 00:00:00 - - - - - -
20.11.2019 23:00:00 - - - - - -
20.11.2019 22:00:00 -1,0 -2,6 8 4 NO 0,1
20.11.2019 21:00:00 - - - - - -
20.11.2019 20:00:00 - - - - - -
20.11.2019 19:00:00 -1,0 -2,4 13 7 N 10
20.11.2019 18:00:00 -1,0 -2,0 11 6 NNO 10
20.11.2019 17:00:00 0,0 -2,0 11 6 N 10
20.11.2019 16:00:00 0,4 -1,7 9 5 NNO 15
20.11.2019 15:00:00 1,0 -2,0 5 3 N 7
20.11.2019 14:00:00 1,0 -2,0 4 2 OSO 5
20.11.2019 13:00:00 0,2 -2,0 4 2 N 1,5
20.11.2019 12:00:00 0,0 -2,0 2 1 - 10
20.11.2019 11:00:00 0,0 -2,0 2 1 - 10
20.11.2019 10:00:00 -0,6 -2,7 2 1 NE 25
20.11.2019 09:00:00 -1,0 -3,0 5 3 OSO 10
20.11.2019 08:00:00 -1,0 -3,0 8 4 ONO 0,3
20.11.2019 07:00:00 -1,0 -3,0 9 5 N 15
20.11.2019 06:00:00 -1,0 -3,0 8 4 N 10
20.11.2019 05:00:00 - - - - - -
20.11.2019 04:00:00 -0,8 -2,8 4 2 N 15
20.11.2019 03:00:00 - - - - - -
20.11.2019 02:00:00 - - - - - -
20.11.2019 01:00:00 -0,8 -2,7 8 4 ESE 0,1
20.11.2019 00:00:00 - - - - - -
19.11.2019 23:00:00 - - - - - -
19.11.2019 22:00:00 -0,8 -2,8 11 6 E 0,1
19.11.2019 21:00:00 - - - - - -
19.11.2019 20:00:00 - - - - - -
19.11.2019 19:00:00 -1,0 -2,9 5 3 SE 0,1
19.11.2019 18:00:00 -1,0 -3,0 13 7 SE 0,1
19.11.2019 17:00:00 -1,0 -3,0 21 11 SSE 0,1
19.11.2019 16:00:00 -0,8 -2,8 15 8 SSE 0,1
19.11.2019 15:00:00 -1,0 -3,0 16 9 ESE 0,1
19.11.2019 14:00:00 -1,0 -3,0 15 8 E 0,2
19.11.2019 13:00:00 -1,0 -3,1 11 6 ESE 0,1
19.11.2019 12:00:00 -1,0 -3,0 9 5 E 0,1
19.11.2019 11:00:00 0,0 -2,0 8 4 ESE 0,1
19.11.2019 10:00:00 -1,0 -2,9 11 6 ESE 0,2
19.11.2019 09:00:00 -2,0 -4,0 13 7 E 0,3
19.11.2019 08:00:00 -2,0 -4,0 5 3 - 0,6
19.11.2019 07:00:00 -2,0 -3,9 21 11 SE 0,1
19.11.2019 06:00:00 -2,0 -4,0 15 8 ESE 0,1
19.11.2019 05:00:00 - - - - - -
19.11.2019 04:00:00 -2,0 -3,9 22 12 ESE 0,1
19.11.2019 03:00:00 - - - - - -
19.11.2019 02:00:00 - - - - - -
19.11.2019 01:00:00 -2,8 -4,4 13 7 ESE 0,3
19.11.2019 00:00:00 - - - - - -
18.11.2019 23:00:00 - - - - - -
18.11.2019 22:00:00 -4,0 -5,7 5 3 E 0,5
18.11.2019 21:00:00 - - - - - -
18.11.2019 20:00:00 - - - - - -
18.11.2019 19:00:00 -4,0 -5,7 4 2 N 10
18.11.2019 18:00:00 -3,0 -5,0 13 7 ESE 3,0
18.11.2019 17:00:00 -3,0 -7,0 13 7 S 10
18.11.2019 16:00:00 -3,2 -5,4 16 9 S 15
18.11.2019 15:00:00 -3,0 -5,0 8 4 S 5
18.11.2019 14:00:00 -3,0 -6,0 15 8 S 10
18.11.2019 13:00:00 -3,6 -5,9 11 6 SSO 20
18.11.2019 12:00:00 -4,0 -6,0 16 9 SSE 10
18.11.2019 11:00:00 -4,0 -6,0 24 13 SE 10
18.11.2019 10:00:00 -3,8 -6,0 18 10 SSE 0,3
18.11.2019 09:00:00 -4,0 -6,0 22 12 SSE 0,3
18.11.2019 08:00:00 -4,0 -6,0 18 10 S 0,2
18.11.2019 07:00:00 -4,0 -6,3 16 9 S 0,1
18.11.2019 06:00:00 -5,0 -7,0 13 7 S 0,1
18.11.2019 05:00:00 -3,0 -6,0 9 5 S 0,2
18.11.2019 04:00:00 -2,8 -5,0 9 5 SSE 0,1
18.11.2019 03:00:00 - - - - - -
18.11.2019 02:00:00 - - - - - -
18.11.2019 01:00:00 -1,4 -3,6 4 2 NNE 0,2
18.11.2019 00:00:00 - - - - - -
17.11.2019 23:00:00 - - - - - -
17.11.2019 22:00:00 -0,8 -2,8 4 2 N 0,1
17.11.2019 21:00:00 - - - - - -
17.11.2019 20:00:00 - - - - - -
17.11.2019 19:00:00 -0,8 -2,8 22 12 SE 0,1
17.11.2019 18:00:00 -1,0 -3,0 22 12 - 0,1
17.11.2019 17:00:00 0,0 -2,0 29 16 SE 0,1
17.11.2019 16:00:00 -0,2 -2,3 34 18 SE 0,1
17.11.2019 15:00:00 - - - - - -
17.11.2019 14:00:00 - - - - - -
17.11.2019 13:00:00 0,4 -1,0 41 22 SSE 0,1
17.11.2019 12:00:00 0,0 -1,0 37 20 SSE 0,1
17.11.2019 11:00:00 - - - - - -
17.11.2019 10:00:00 -0,2 -1,6 24 13 SSE 0,1
17.11.2019 09:00:00 - - - - - -
17.11.2019 08:00:00 - - - - - -
17.11.2019 07:00:00 0,2 -1,2 35 19 S 0,1
17.11.2019 06:00:00 - - - - - -
17.11.2019 05:00:00 - - - - - -
17.11.2019 04:00:00 -0,4 -1,8 26 14 SSE 0,1
17.11.2019 03:00:00 - - - - - -
17.11.2019 02:00:00 - - - - - -
17.11.2019 01:00:00 -3,0 -4,1 16 9 ENE 0,1
17.11.2019 00:00:00 - - - - - -
16.11.2019 23:00:00 - - - - - -
16.11.2019 22:00:00 -3,0 -4,1 5 3 ONO 0,3
16.11.2019 21:00:00 - - - - - -
16.11.2019 20:00:00 - - - - - -
16.11.2019 19:00:00 - - - - - -
16.11.2019 18:00:00 - - - - - -
16.11.2019 17:00:00 - - - - - -
16.11.2019 16:00:00 - - - - - -
16.11.2019 15:00:00 -2,0 -4,0 5 3 ESE 10
16.11.2019 14:00:00 - - - - - -
16.11.2019 13:00:00 -1,4 -3,4 18 10 SSE 10
16.11.2019 12:00:00 - - - - - -
16.11.2019 11:00:00 - - - - - -
16.11.2019 10:00:00 -1,6 -3,0 15 8 S 0,1
16.11.2019 09:00:00 - - - - - -

tt = Temperatura
td = dewpoint
ff = velocità del vento
dd = direzione del vento
vv = visibility

Stazioni seguenti

WeatherPro
AMSI
MeteoEarth